[[{"header":{"parameterUnit":"m.s-1","parameterCategory":2,"la1":30.2991,"la2":30.254,"lo1":-89.0895,"lo2":-89.0444,"dy":0.0017,"dx":0.0017,"nx":28,"ny":28,"refTime":"2025-05-27T09:00:00:Z","depth":"0","parameterNumber":2,"parameterNumberName":"U-component_of_CURRENTS"},"data":[0,0,0,0,0,0,0,0,0,0,0,0,0,0,0,0,0,0,0,0,0,0,0,0,0,0,0,0,0,0,0,0,0,0,0,0,0,0,0,0,0,0,0,0,0,0,0,0,0,0,0,0,0,0,0,0,0,0,-0.4266,-0.4268,0,-0.434,-0.434,-0.4339,-0.4268,-0.4266,-0.4265,-0.4264,-0.4048,-0.4044,-0.4039,0,0,0,0,0,0,0,0,0,0,0,0,0,-0.3667,-0.3679,-0.4266,-0.4268,-0.4271,-0.434,-0.434,-0.4339,-0.4268,-0.4266,-0.4265,-0.4263,-0.4049,-0.4044,-0.4039,0,0,0,0,0,0,0,0,0,0,0,0,0,-0.3837,-0.3683,-0.4265,-0.4256,-0.4257,-0.4341,-0.434,-0.4339,-0.4268,-0.4266,-0.4264,-0.4262,-0.4051,-0.4045,-0.4038,-0.4034,0,0,-0.4017,-0.4014,0,0,0,0,0,0,0,0,-0.3828,-0.3858,-0.4255,-0.4257,-0.4259,-0.4308,-0.405,-0.4229,-0.4269,-0.4246,-0.4264,-0.4262,-0.4121,-0.4108,-0.4106,-0.4024,-0.4015,-0.4016,-0.4012,-0.4009,-0.4007,0,0,0,0,0,0,0,-0.3817,-0.3852,-0.4278,-0.4258,-0.4261,-0.4114,-0.4138,-0.4082,-0.4174,-0.4248,-0.4247,-0.4283,-0.4117,-0.4113,-0.41,-0.4011,-0.4017,-0.4011,-0.4006,-0.4004,-0.3899,-0.39,0,0,0,0,0,0,-0.3869,-0.3845,-0.4276,-0.4282,-0.4054,-0.413,-0.4155,-0.428,-0.4181,-0.4172,-0.4285,-0.428,-0.4125,-0.4108,-0.4092,-0.4028,-0.4009,-0.4003,-0.3999,-0.3898,-0.3899,-0.3901,0,0,0,0,0,0,-0.3857,-0.391,-0.4273,-0.407,-0.4109,-0.4147,-0.4284,-0.4283,-0.4284,-0.4216,-0.4196,-0.4291,-0.4123,-0.4101,-0.4061,-0.402,-0.4,-0.3994,-0.3896,-0.3898,-0.39,-0.3933,0,0,0,0,0,0,-0.3841,-0.3907,-0.3977,-0.4079,-0.4124,-0.433,-0.4288,-0.4286,-0.4318,-0.4311,-0.4214,-0.4193,-0.412,-0.4072,-0.4054,-0.401,-0.3988,-0.3894,-0.3897,-0.3899,-0.393,-0.3936,-0.3941,0,0,0,0,0,-0.382,-0.3927,-0.3982,-0.4032,-0.4236,-0.4334,-0.434,-0.4341,-0.4321,-0.433,-0.4275,-0.4196,-0.4074,-0.4069,-0.4047,-0.4,-0.3893,-0.3896,-0.3899,-0.3928,-0.3935,-0.3941,0,0,0,0,0,0,-0.3667,-0.3936,-0.3996,-0.4173,-0.4257,-0.4328,-0.4335,-0.4357,-0.4326,-0.4303,-0.4221,-0.4197,-0.4139,-0.4093,-0.409,-0.3986,-0.3967,-0.3966,-0.3996,-0.4002,-0.4007,-0.3947,-0.3983,0,0,0,0,0,-0.3691,-0.3847,-0.404,-0.4154,-0.422,-0.4282,-0.4312,-0.4337,-0.4348,-0.4333,-0.4276,-0.4207,-0.4138,-0.4092,-0.4035,-0.3986,-0.3922,-0.3945,-0.395,-0.3954,-0.3897,-0.3798,-0.3787,-0.391,-0.391,-0.391,0,0,-0.3629,-0.3817,-0.3882,-0.413,-0.4187,-0.4251,-0.4289,-0.4359,-0.4353,-0.4311,-0.4254,-0.4225,-0.4137,-0.4076,-0.4044,-0.4025,-0.3904,-0.3958,-0.3962,-0.39,-0.3799,-0.3786,-0.3775,-0.3912,-0.3912,-0.3912,0,0,-0.3594,-0.3794,-0.3903,-0.4004,-0.4168,-0.4217,-0.4253,-0.4355,-0.4344,-0.4346,-0.4288,-0.4236,-0.4171,-0.4073,-0.4018,-0.4021,-0.3943,-0.4032,-0.3984,-0.3891,-0.3878,-0.3865,-0.3835,-0.3819,-0.4023,-0.4023,-0.4023,0,-0.3508,-0.3706,-0.3916,-0.4037,-0.4067,-0.4208,-0.4234,-0.4274,-0.4325,-0.4281,-0.4326,-0.4187,-0.4139,-0.3989,-0.4011,-0.4014,-0.3993,-0.3963,-0.3891,-0.3877,-0.3863,-0.3834,-0.3816,-0.4025,-0.4025,-0.4025,-0.4024,0,-0.3549,-0.3683,-0.374,-0.3948,-0.4007,-0.4058,-0.4174,-0.4195,-0.4218,-0.4228,-0.4145,-0.4117,-0.4009,-0.4019,-0.4016,-0.3893,-0.3925,-0.3917,-0.3862,-0.3851,-0.3825,-0.3805,-0.4028,-0.4027,-0.4027,-0.4026,0,0,-0.3411,-0.3709,-0.3717,-0.3772,-0.3957,-0.4007,-0.4011,-0.4029,-0.4005,-0.4042,-0.3961,-0.389,-0.3898,-0.3839,-0.3835,-0.3782,-0.3724,-0.3831,-0.3825,-0.3778,-0.3576,-0.3412,-0.3376,-0.3721,-0.3717,-0.3713,-0.362,0,-0.3346,-0.3507,-0.3656,-0.3688,-0.3757,-0.3857,-0.385,-0.388,-0.3907,-0.3892,-0.3845,-0.3801,-0.3824,-0.3813,-0.3747,-0.3752,-0.3664,-0.3752,-0.361,-0.3605,-0.3438,-0.3341,-0.3253,-0.3143,-0.36,-0.3597,-0.3595,0,-0.3333,-0.3443,-0.3479,-0.359,-0.362,-0.3638,-0.3626,-0.365,-0.3666,-0.3688,-0.3627,-0.3658,-0.3581,-0.3638,-0.3515,-0.3591,-0.3551,-0.3552,-0.3547,-0.334,-0.3397,-0.3216,-0.309,-0.3091,-0.3564,-0.3566,-0.3568,0,-0.3142,-0.3304,-0.3305,-0.3349,-0.3502,-0.3472,-0.3513,-0.3548,-0.3577,-0.3564,-0.3602,-0.3501,-0.3503,-0.3421,-0.3411,-0.3485,-0.3297,-0.3383,-0.3163,-0.3158,-0.3011,-0.2995,-0.2822,-0.3202,-0.3202,-0.3202,-0.3203,0,-0.3044,-0.3049,-0.3226,-0.3237,-0.3222,-0.3349,-0.333,-0.3365,-0.3435,-0.341,-0.3488,-0.3432,-0.3458,-0.3382,-0.3352,-0.3167,-0.3207,-0.3089,-0.3072,-0.3031,-0.3019,-0.2954,-0.3015,-0.3199,-0.32,-0.32,-0.3201,0,-0.2865,-0.2983,-0.3016,-0.3127,-0.3162,-0.3148,-0.3295,-0.3304,-0.3383,-0.336,-0.3368,-0.3404,-0.3269,-0.325,-0.3127,-0.3073,-0.287,-0.283,-0.2806,-0.2782,-0.2598,-0.2666,-0.2424,-0.2351,-0.2611,-0.2605,-0.2601,0,-0.2796,-0.2801,-0.2919,-0.2948,-0.3001,-0.3049,-0.3101,-0.3237,-0.3245,-0.3269,-0.3218,-0.3162,-0.3013,-0.2826,-0.2699,-0.2548,-0.259,-0.2394,-0.2452,-0.2487,-0.2555,-0.2632,-0.2598,-0.2343,-0.2337,-0.2332,-0.2328,0,-0.2634,-0.2677,-0.271,-0.2787,-0.284,-0.2883,-0.2938,-0.2946,-0.3023,-0.3029,-0.2898,-0.2807,-0.2649,-0.2443,-0.2282,-0.2181,-0.2358,-0.2277,-0.2302,-0.2261,-0.2343,-0.2301,-0.2582,-0.2282,-0.2286,-0.229,-0.2292,-0.2294,-0.2498,-0.2501,-0.2569,-0.2606,-0.2669,-0.262,-0.2517,-0.2547,-0.2491,-0.2311,-0.2471,-0.2247,-0.2315,-0.2067,-0.1949,-0.1817,-0.1931,-0.1842,-0.1914,-0.1984,-0.1885,-0.2052,-0.1725,-0.1726,-0.1727,-0.1728,-0.1729,0,-0.2368,-0.2395,-0.2405,-0.24,-0.2318,-0.2424,-0.2343,-0.2163,-0.1918,-0.1823,-0.1714,-0.1738,-0.1665,-0.1678,-0.1642,-0.1554,-0.1572,-0.1533,-0.1679,-0.1653,-0.1776,-0.1733,-0.1402,-0.1402,-0.1402,-0.1402,-0.1402,-0.1402,-0.232,-0.2275,-0.2272,-0.2053,-0.2011,-0.1765,-0.1624,-0.1389,-0.1234,-0.0931,-0.0829,-0.086,-0.1198,-0.1616,-0.1587,-0.15,-0.1514,-0.1439,-0.1471,-0.1658,-0.1697,-0.1734,-0.1704,-0.1372,-0.1372,-0.1315,-0.1315,-0.1315]},{"header":{"parameterUnit":"m.s-1","parameterCategory":2,"la1":30.2991,"la2":30.254,"lo1":-89.0895,"lo2":-89.0444,"dy":0.0017,"dx":0.0017,"nx":28,"ny":28,"refTime":"2025-05-27T09:00:00:Z","depth":"0","parameterNumber":3,"parameterNumberName":"V-component_of_CURRENTS"},"data":[0,0,0,0,0,0,0,0,0,0,0,0,0,0,0,0,0,0,0,0,0,0,0,0,0,0,0,0,0,0,0,0,0,0,0,0,0,0,0,0,0,0,0,0,0,0,0,0,0,0,0,0,0,0,0,0,0,0,-0.0339,-0.0337,0,-0.0193,-0.0192,-0.019,-0.0075,-0.0074,-0.0073,-0.0072,0.0091,0.0095,0.0098,0,0,0,0,0,0,0,0,0,0,0,0,0,-0.0475,-0.0473,-0.0339,-0.0337,-0.0335,-0.0193,-0.0191,-0.019,-0.0075,-0.0074,-0.0072,-0.0071,0.009,0.0094,0.0098,0,0,0,0,0,0,0,0,0,0,0,0,0,-0.0382,-0.0473,-0.0339,-0.0261,-0.0252,-0.0194,-0.0191,-0.0189,-0.0076,-0.0074,-0.0072,-0.007,0.0089,0.0094,0.0099,0.0094,0,0,0.0114,0.0116,0,0,0,0,0,0,0,0,-0.0387,-0.0377,-0.0274,-0.0266,-0.0256,-0.015,-0.0179,-0.0093,-0.0076,-0.0143,-0.0072,-0.007,0.0011,0.0023,0.0045,0.0101,0.0108,0.0114,0.0117,0.0119,0.012,0,0,0,0,0,0,0,-0.0394,-0.0382,-0.0282,-0.0272,-0.0262,-0.0218,-0.0203,-0.0162,-0.0078,-0.0137,-0.0128,-0.0112,0.0016,0.004,0.005,0.0111,0.0114,0.0118,0.0121,0.0123,0.0254,0.0255,0,0,0,0,0,0,-0.0415,-0.0389,-0.0286,-0.0277,-0.0318,-0.0217,-0.02,-0.0186,-0.0078,-0.006,-0.0114,-0.0107,0.0031,0.0044,0.0056,0.0066,0.0119,0.0124,0.0126,0.0254,0.0254,0.0255,0,0,0,0,0,0,-0.0419,-0.0407,-0.0292,-0.0329,-0.0311,-0.0217,-0.0202,-0.0184,-0.0158,-0.006,-0.0041,-0.0105,0.0033,0.0049,0.0102,0.0073,0.0126,0.013,0.0253,0.0254,0.0255,0.008,0,0,0,0,0,0,-0.0423,-0.041,-0.0418,-0.0331,-0.031,-0.0275,-0.0203,-0.0183,-0.0151,-0.0141,-0.0047,-0.003,0.0036,0.0094,0.0107,0.0081,0.0134,0.0252,0.0253,0.0254,0.0085,0.0075,0.0066,0,0,0,0,0,-0.0429,-0.046,-0.042,-0.0408,-0.0321,-0.0277,-0.0263,-0.019,-0.0153,-0.0157,-0.0075,-0.0032,0.0111,0.0098,0.0113,0.0087,0.0252,0.0253,0.0254,0.009,0.0077,0.0067,0,0,0,0,0,0,-0.0527,-0.0448,-0.0403,-0.0408,-0.035,-0.0258,-0.026,-0.0204,-0.0145,-0.0135,-0.0036,-0.0014,0.0026,0.0088,0.0072,0.0137,0.0192,0.0196,0.0062,0.0051,0.0042,0.0037,0.0138,0,0,0,0,0,-0.0552,-0.0552,-0.0461,-0.0467,-0.0444,-0.0353,-0.0329,-0.0277,-0.0207,-0.0179,-0.0107,-0.0025,0.0041,0.007,0.0137,0.0156,0.0258,0.0159,0.0149,0.014,0.0152,0.0268,0.0269,0.0259,0.0259,0.0259,0,0,-0.0589,-0.0549,-0.0546,-0.0488,-0.0438,-0.0428,-0.0335,-0.0311,-0.0295,-0.0173,-0.0143,-0.0062,0.0043,0.0077,0.01,0.0122,0.0201,0.0142,0.0132,0.0151,0.0269,0.027,0.0271,0.026,0.026,0.026,0,0,-0.0681,-0.063,-0.0663,-0.0623,-0.0561,-0.05,-0.0498,-0.041,-0.0364,-0.0324,-0.0221,-0.0154,-0.007,0.0008,0.0056,0.0036,0.0149,0.0056,-0.0008,0.0102,0.0103,0.0106,0.0241,0.0257,0.0046,0.0045,0.0045,0,-0.0727,-0.0739,-0.0668,-0.0686,-0.065,-0.0541,-0.055,-0.0504,-0.0408,-0.0356,-0.0337,-0.0161,-0.0101,-0.0017,-0.0027,0.0009,0.0108,0.0011,0.0086,0.009,0.0096,0.0235,0.0255,0.0037,0.0038,0.0039,0.004,0,-0.0832,-0.0834,-0.0852,-0.0825,-0.079,-0.0779,-0.0689,-0.0648,-0.0577,-0.0501,-0.0401,-0.0301,-0.018,-0.0168,-0.0115,-0.0041,0.0031,0.0056,0.01,0.0085,0.0234,0.0258,0.0025,0.0028,0.0031,0.0033,0,0,-0.0918,-0.0923,-0.0921,-0.091,-0.0846,-0.0816,-0.0795,-0.0705,-0.0651,-0.0576,-0.0492,-0.0405,-0.0314,-0.0249,-0.0163,-0.009,0.0008,-0.0019,-0.0009,0.0092,0.0284,0.035,0.0383,0.0042,0.0045,0.0048,0.0374,0,-0.0998,-0.1064,-0.103,-0.1046,-0.1047,-0.0934,-0.0908,-0.0817,-0.0718,-0.0621,-0.0496,-0.0393,-0.0355,-0.0288,-0.0216,-0.0026,0.0063,-0.008,0.0308,0.032,0.0359,0.0409,0.041,0.0702,0.0398,0.0402,0.0405,0,-0.1087,-0.1105,-0.1157,-0.1104,-0.1089,-0.1083,-0.0953,-0.0913,-0.0761,-0.068,-0.0559,-0.0436,-0.0292,-0.0275,0.0023,-0.0065,0.0093,0.0219,0.0236,0.0378,0.0429,0.0672,0.0758,0.0917,0.0442,0.0439,0.0437,0,-0.1147,-0.117,-0.1203,-0.1191,-0.114,-0.1113,-0.1059,-0.0927,-0.0848,-0.0697,-0.0596,-0.0428,-0.0269,-0.0102,0.0169,0.0106,0.0514,0.0467,0.0683,0.0691,0.0813,0.0826,0.1079,0.067,0.0669,0.0668,0.0667,0,-0.1215,-0.123,-0.1235,-0.1244,-0.1241,-0.1169,-0.1113,-0.1034,-0.0885,-0.0726,-0.062,-0.0434,-0.0214,0.0052,0.0209,0.056,0.0569,0.0707,0.0784,0.0754,0.0758,0.1,0.1044,0.0681,0.0678,0.0675,0.0673,0,-0.1269,-0.1285,-0.1314,-0.1288,-0.1281,-0.1267,-0.1164,-0.1083,-0.0947,-0.073,-0.0666,-0.0379,-0.0033,0.0205,0.0562,0.0686,0.1073,0.1069,0.1033,0.1097,0.1354,0.1387,0.1766,0.1895,0.1325,0.1328,0.1331,0,-0.1302,-0.1336,-0.136,-0.1381,-0.1374,-0.1342,-0.1286,-0.1144,-0.0982,-0.0643,-0.0479,-0.0145,0.0159,0.0666,0.0908,0.1217,0.1317,0.1424,0.1267,0.1407,0.1502,0.1516,0.1596,0.138,0.1384,0.1386,0.1388,0,-0.1345,-0.1367,-0.1396,-0.1449,-0.1426,-0.1349,-0.1208,-0.1092,-0.0802,-0.0569,-0.0145,0.008,0.0526,0.0879,0.1228,0.1387,0.1523,0.1486,0.1653,0.1594,0.1611,0.1758,0.1143,0.1412,0.1409,0.1408,0.1406,0.1405,-0.1368,-0.1413,-0.1463,-0.1487,-0.1455,-0.1276,-0.115,-0.0909,-0.0605,-0.0157,0.0107,0.0516,0.0873,0.1322,0.1512,0.1822,0.1763,0.1887,0.1932,0.1948,0.2014,0.1456,0.1777,0.1777,0.1777,0.1777,0.1777,0,-0.1369,-0.1429,-0.1482,-0.145,-0.1348,-0.132,-0.1027,-0.0825,-0.0412,-0.0032,0.0378,0.1005,0.1377,0.1657,0.2033,0.2241,0.2266,0.2356,0.2362,0.2435,0.198,0.1918,0.2258,0.2257,0.2257,0.2257,0.2257,0.2257,-0.1379,-0.1428,-0.1446,-0.1315,-0.1267,-0.1013,-0.0815,-0.0525,-0.0223,0.0353,0.0784,0.1109,0.1585,0.2218,0.2604,0.2646,0.2854,0.2827,0.2985,0.2617,0.2574,0.2534,0.2488,0.2941,0.2942,0.3405,0.3409,0.3413]}],[{"header":{"parameterUnit":"m.s-1","parameterCategory":2,"la1":30.2991,"la2":30.254,"lo1":-89.0895,"lo2":-89.0444,"dy":0.0017,"dx":0.0017,"nx":28,"ny":28,"refTime":"2025-05-27T09:00:00:Z","depth":"2","parameterNumber":2,"parameterNumberName":"U-component_of_CURRENTS"},"data":[0,0,0,0,0,0,0,0,0,0,0,0,0,0,0,0,0,0,0,0,0,0,0,0,0,0,0,0,0,0,0,0,0,0,0,0,0,0,0,0,0,0,0,0,0,0,0,0,0,0,0,0,0,0,0,0,0,0,-0.2922,-0.2922,0,-0.2918,-0.2918,-0.2918,-0.2908,-0.2908,-0.2908,-0.2908,-0.3018,-0.3021,-0.3024,0,0,0,0,0,0,0,0,0,0,0,0,0,-0.2894,-0.2895,-0.2922,-0.2922,-0.2923,-0.2918,-0.2918,-0.2918,-0.2908,-0.2908,-0.2908,-0.2908,-0.3017,-0.3021,-0.3024,0,0,0,0,0,0,0,0,0,0,0,0,0,-0.2898,-0.2895,-0.2922,-0.2918,-0.2918,-0.2918,-0.2918,-0.2918,-0.2908,-0.2908,-0.2908,-0.2908,-0.3016,-0.302,-0.3025,-0.3053,0,0,-0.3038,-0.304,0,0,0,0,0,0,0,0,-0.2898,-0.2899,-0.2919,-0.2919,-0.2919,-0.2915,-0.2949,-0.297,-0.2908,-0.291,-0.2908,-0.2908,-0.2996,-0.3002,-0.2997,-0.3059,-0.3063,-0.3039,-0.3041,-0.3043,-0.3045,0,0,0,0,0,0,0,-0.2898,-0.2899,-0.2919,-0.2919,-0.2919,-0.2908,-0.2908,-0.2952,-0.2954,-0.291,-0.2909,-0.2912,-0.2996,-0.2992,-0.3,-0.3065,-0.3039,-0.3043,-0.3045,-0.3047,-0.3128,-0.3127,0,0,0,0,0,0,-0.2904,-0.2899,-0.2919,-0.2919,-0.291,-0.2909,-0.2909,-0.2915,-0.2951,-0.2956,-0.2912,-0.2912,-0.2985,-0.2994,-0.3004,-0.3052,-0.3043,-0.3047,-0.305,-0.3128,-0.3128,-0.3127,0,0,0,0,0,0,-0.2903,-0.2906,-0.2919,-0.291,-0.2911,-0.291,-0.2916,-0.2915,-0.2924,-0.2952,-0.2958,-0.2924,-0.2985,-0.2997,-0.3048,-0.3056,-0.3049,-0.3054,-0.3129,-0.3128,-0.3127,-0.3143,0,0,0,0,0,0,-0.2902,-0.2906,-0.2909,-0.2911,-0.2912,-0.2933,-0.2916,-0.2915,-0.2926,-0.2926,-0.2965,-0.2974,-0.2986,-0.3041,-0.3052,-0.3062,-0.3057,-0.313,-0.3129,-0.3128,-0.3143,-0.3142,-0.3142,0,0,0,0,0,-0.2901,-0.2911,-0.2909,-0.2911,-0.2918,-0.2934,-0.2934,-0.293,-0.2927,-0.2937,-0.2957,-0.2973,-0.3041,-0.3045,-0.3058,-0.307,-0.313,-0.3129,-0.3128,-0.3143,-0.3142,-0.3142,0,0,0,0,0,0,-0.2897,-0.2911,-0.2909,-0.292,-0.2932,-0.2933,-0.2937,-0.2941,-0.2961,-0.2965,-0.2987,-0.2998,-0.3033,-0.3051,-0.3054,-0.3083,-0.3081,-0.3082,-0.3087,-0.3087,-0.3087,-0.3101,-0.3061,0,0,0,0,0,-0.2899,-0.2908,-0.2922,-0.2929,-0.2937,-0.294,-0.2945,-0.295,-0.2967,-0.2975,-0.2999,-0.3019,-0.3035,-0.3063,-0.3078,-0.3121,-0.3112,-0.3127,-0.3126,-0.3126,-0.3143,-0.3127,-0.3128,-0.3123,-0.3123,-0.3123,0,0,-0.2898,-0.2906,-0.291,-0.2928,-0.2932,-0.2955,-0.2943,-0.296,-0.2981,-0.2989,-0.3024,-0.3025,-0.3043,-0.3069,-0.3087,-0.3093,-0.3117,-0.3125,-0.3125,-0.3142,-0.3126,-0.3127,-0.3127,-0.3122,-0.3123,-0.3123,0,0,-0.2902,-0.291,-0.2921,-0.294,-0.2958,-0.2967,-0.298,-0.2995,-0.3003,-0.304,-0.3031,-0.3043,-0.3088,-0.3088,-0.3098,-0.3111,-0.3108,-0.3107,-0.3137,-0.3122,-0.3122,-0.3123,-0.309,-0.3088,-0.3117,-0.3117,-0.3117,0,-0.2895,-0.2915,-0.2926,-0.2949,-0.2967,-0.298,-0.3005,-0.302,-0.3049,-0.306,-0.3057,-0.308,-0.3094,-0.3116,-0.3111,-0.3114,-0.3098,-0.3142,-0.3123,-0.3124,-0.3124,-0.3091,-0.3088,-0.3118,-0.3118,-0.3118,-0.3118,0,-0.2912,-0.2934,-0.2945,-0.2978,-0.3003,-0.3025,-0.3057,-0.3079,-0.3092,-0.3101,-0.3121,-0.3123,-0.3136,-0.313,-0.3135,-0.3139,-0.3122,-0.3117,-0.3129,-0.3126,-0.309,-0.3087,-0.3119,-0.3119,-0.3118,-0.3118,0,0,-0.2868,-0.2941,-0.2941,-0.2967,-0.3021,-0.3039,-0.3088,-0.3123,-0.3145,-0.3162,-0.3181,-0.319,-0.3177,-0.3185,-0.3173,-0.3169,-0.3145,-0.3153,-0.3151,-0.3129,-0.3098,-0.2977,-0.2962,-0.3139,-0.3139,-0.3139,-0.3064,0,-0.2869,-0.2915,-0.2958,-0.3006,-0.3033,-0.308,-0.312,-0.3159,-0.3183,-0.3206,-0.3206,-0.3214,-0.3202,-0.3198,-0.3193,-0.316,-0.3142,-0.3166,-0.3098,-0.3096,-0.2996,-0.2956,-0.2734,-0.264,-0.3061,-0.306,-0.306,0,-0.2856,-0.2894,-0.294,-0.3019,-0.3035,-0.3071,-0.313,-0.3171,-0.3217,-0.3235,-0.3251,-0.3248,-0.3248,-0.3228,-0.3185,-0.3201,-0.3154,-0.3124,-0.312,-0.3007,-0.2969,-0.2714,-0.2618,-0.3055,-0.3055,-0.3056,-0.3056,0,-0.2793,-0.2875,-0.2908,-0.2936,-0.3029,-0.3058,-0.3106,-0.3167,-0.3195,-0.3244,-0.3255,-0.3266,-0.3249,-0.322,-0.3166,-0.3174,-0.3105,-0.3102,-0.2947,-0.2937,-0.2735,-0.2707,-0.3061,-0.3061,-0.3061,-0.3061,-0.3061,0,-0.2762,-0.2785,-0.2881,-0.2897,-0.2938,-0.3022,-0.3061,-0.3114,-0.3179,-0.3192,-0.325,-0.324,-0.3245,-0.3211,-0.317,-0.3039,-0.3101,-0.2941,-0.2907,-0.2729,-0.2703,-0.3064,-0.3065,-0.3058,-0.3059,-0.3059,-0.306,0,-0.2667,-0.2737,-0.2775,-0.2875,-0.2904,-0.2926,-0.3024,-0.3039,-0.3127,-0.3146,-0.3158,-0.3207,-0.3145,-0.3133,-0.3069,-0.3007,-0.2924,-0.2862,-0.2646,-0.2587,-0.2765,-0.2768,-0.2672,-0.2667,-0.2663,-0.2659,-0.2656,0,-0.2616,-0.2625,-0.2723,-0.2732,-0.277,-0.2827,-0.2849,-0.2978,-0.2995,-0.3098,-0.3077,-0.3073,-0.2996,-0.2878,-0.2767,-0.2647,-0.2781,-0.2405,-0.2375,-0.2747,-0.2725,-0.2734,-0.2743,-0.2106,-0.2098,-0.2093,-0.2088,0,-0.2499,-0.2534,-0.256,-0.2584,-0.2612,-0.265,-0.2702,-0.2723,-0.2851,-0.2881,-0.2884,-0.2847,-0.2728,-0.2489,-0.236,-0.2277,-0.2411,-0.2277,-0.2708,-0.2244,-0.2207,-0.2188,-0.2216,-0.2035,-0.204,-0.2044,-0.2047,-0.2049,-0.238,-0.2364,-0.239,-0.2393,-0.2424,-0.242,-0.2381,-0.2457,-0.2471,-0.2458,-0.2592,-0.2454,-0.2402,-0.2039,-0.1927,-0.1847,-0.2008,-0.1942,-0.1962,-0.1988,-0.1941,-0.19,-0.1661,-0.1663,-0.1666,-0.1668,-0.167,0,-0.2204,-0.2194,-0.2188,-0.2171,-0.2102,-0.2205,-0.2217,-0.214,-0.2079,-0.2126,-0.2102,-0.1861,-0.1674,-0.164,-0.1405,-0.1363,-0.1374,-0.1334,-0.1356,-0.1407,-0.1453,-0.1383,-0.0951,-0.0949,-0.0948,-0.0946,0,0,-0.2106,-0.2024,-0.2016,-0.1836,-0.1815,-0.1676,-0.1641,-0.1598,-0.158,-0.1492,-0.1437,-0.1537,-0.1552,-0.1243,-0.1174,-0.1021,-0.1206,-0.0966,-0.1537,-0.161,-0.1653,-0.1787,-0.1733,0,0,0,0,0]},{"header":{"parameterUnit":"m.s-1","parameterCategory":2,"la1":30.2991,"la2":30.254,"lo1":-89.0895,"lo2":-89.0444,"dy":0.0017,"dx":0.0017,"nx":28,"ny":28,"refTime":"2025-05-27T09:00:00:Z","depth":"2","parameterNumber":3,"parameterNumberName":"V-component_of_CURRENTS"},"data":[0,0,0,0,0,0,0,0,0,0,0,0,0,0,0,0,0,0,0,0,0,0,0,0,0,0,0,0,0,0,0,0,0,0,0,0,0,0,0,0,0,0,0,0,0,0,0,0,0,0,0,0,0,0,0,0,0,0,-0.0427,-0.0426,0,-0.0324,-0.0323,-0.0322,-0.0255,-0.0255,-0.0254,-0.0254,-0.0076,-0.0072,-0.0068,0,0,0,0,0,0,0,0,0,0,0,0,0,-0.0487,-0.0487,-0.0427,-0.0426,-0.0424,-0.0324,-0.0323,-0.0322,-0.0255,-0.0255,-0.0254,-0.0254,-0.0077,-0.0072,-0.0067,0,0,0,0,0,0,0,0,0,0,0,0,0,-0.0431,-0.0487,-0.0427,-0.0379,-0.0373,-0.0325,-0.0323,-0.0321,-0.0255,-0.0255,-0.0254,-0.0253,-0.0079,-0.0073,-0.0066,-0.0041,0,0,-0.0047,-0.0044,0,0,0,0,0,0,0,0,-0.0434,-0.0429,-0.0387,-0.0382,-0.0376,-0.0301,-0.0279,-0.0224,-0.0256,-0.0301,-0.0254,-0.0253,-0.0144,-0.0133,-0.0117,-0.0033,-0.0025,-0.0046,-0.0042,-0.0039,-0.0038,0,0,0,0,0,0,0,-0.0439,-0.0433,-0.0387,-0.0386,-0.0379,-0.0335,-0.0327,-0.0268,-0.0227,-0.0297,-0.0292,-0.0279,-0.0141,-0.0123,-0.0112,-0.0022,-0.0046,-0.0041,-0.0037,-0.0034,0.0113,0.0113,0,0,0,0,0,0,-0.0455,-0.0437,-0.039,-0.0384,-0.0403,-0.0335,-0.0326,-0.0326,-0.0229,-0.0214,-0.028,-0.0277,-0.0135,-0.0119,-0.0105,-0.005,-0.004,-0.0033,-0.003,0.0113,0.0113,0.0113,0,0,0,0,0,0,-0.0457,-0.0453,-0.0394,-0.0407,-0.0396,-0.0335,-0.0336,-0.0325,-0.0305,-0.0217,-0.0201,-0.0271,-0.0133,-0.0114,-0.0052,-0.0043,-0.0031,-0.0025,0.0113,0.0113,0.0113,0.0048,0,0,0,0,0,0,-0.046,-0.0454,-0.0463,-0.0408,-0.0396,-0.037,-0.0336,-0.0323,-0.0298,-0.0293,-0.0204,-0.0187,-0.0131,-0.0062,-0.0046,-0.0034,-0.002,0.0113,0.0113,0.0113,0.005,0.0046,0.0042,0,0,0,0,0,-0.0462,-0.0479,-0.0464,-0.0458,-0.041,-0.037,-0.036,-0.0314,-0.0299,-0.0293,-0.0232,-0.019,-0.005,-0.0057,-0.0038,-0.0024,0.0113,0.0113,0.0113,0.0052,0.0047,0.0043,0,0,0,0,0,0,-0.0515,-0.0472,-0.0455,-0.046,-0.0419,-0.0359,-0.0353,-0.0321,-0.0271,-0.0265,-0.0185,-0.0164,-0.0109,-0.006,-0.007,0.0017,0.0037,0.0041,-0.0016,-0.002,-0.0024,-0.0038,-0.0014,0,0,0,0,0,-0.0531,-0.0532,-0.0479,-0.0485,-0.0468,-0.0413,-0.0393,-0.036,-0.0307,-0.0286,-0.0222,-0.0156,-0.0094,-0.0054,0.0002,0.0055,0.0106,0.0074,0.007,0.0067,0.0068,0.0146,0.0149,0.0113,0.0113,0.0113,0,0,-0.0554,-0.0531,-0.0532,-0.0496,-0.0464,-0.0442,-0.0399,-0.0375,-0.0351,-0.0273,-0.0227,-0.0169,-0.0086,-0.0031,-0.0001,0.0014,0.0103,0.0067,0.0063,0.0066,0.0146,0.015,0.0153,0.0113,0.0113,0.0113,0,0,-0.0598,-0.0581,-0.0592,-0.0559,-0.0514,-0.0474,-0.047,-0.041,-0.0377,-0.0327,-0.0266,-0.0203,-0.0114,-0.0048,-0.0003,0.0006,0.0073,0.002,0.0001,0.0076,0.008,0.0084,0.0147,0.0158,0.0026,0.0026,0.0026,0,-0.0628,-0.0633,-0.0589,-0.0582,-0.056,-0.0493,-0.0489,-0.0443,-0.037,-0.0339,-0.0322,-0.0186,-0.0119,-0.0035,-0.0032,-0.0001,0.0045,0.0011,0.0071,0.0076,0.0081,0.0146,0.0158,0.0023,0.0023,0.0023,0.0024,0,-0.0671,-0.0668,-0.0671,-0.0639,-0.061,-0.0598,-0.0526,-0.0494,-0.0448,-0.0392,-0.0315,-0.0223,-0.0142,-0.011,-0.0063,0.0007,0.0028,0.0049,0.008,0.0081,0.0149,0.0162,0.0018,0.0019,0.002,0.0021,0,0,-0.0751,-0.0711,-0.0713,-0.0706,-0.0639,-0.0623,-0.0579,-0.0518,-0.0489,-0.0408,-0.036,-0.0249,-0.0202,-0.0149,-0.008,-0.0006,0.0069,0.0031,0.0036,0.0089,0.0229,0.0242,0.0259,0.0099,0.0101,0.0103,0.026,0,-0.0798,-0.0814,-0.0768,-0.0767,-0.0766,-0.0686,-0.065,-0.0582,-0.0512,-0.0448,-0.0338,-0.0268,-0.0214,-0.0176,-0.0096,0.0028,0.0103,0.0025,0.0226,0.0232,0.024,0.0275,0.0239,0.0376,0.0273,0.0276,0.0277,0,-0.0852,-0.0853,-0.0874,-0.0831,-0.0822,-0.0807,-0.0741,-0.0696,-0.0579,-0.0523,-0.0429,-0.034,-0.0216,-0.0179,0.0034,-0.0021,0.0094,0.0191,0.02,0.0246,0.0271,0.0362,0.0405,0.0301,0.0299,0.0297,0.0296,0,-0.094,-0.0923,-0.0948,-0.0934,-0.0876,-0.0868,-0.083,-0.073,-0.0687,-0.057,-0.0524,-0.0371,-0.0288,-0.0129,0.0069,0.0055,0.0302,0.0311,0.0435,0.0437,0.0464,0.0465,0.0461,0.0461,0.046,0.046,0.046,0,-0.1008,-0.1022,-0.0998,-0.101,-0.1029,-0.0953,-0.0939,-0.0877,-0.0777,-0.0725,-0.0577,-0.0499,-0.0271,-0.0102,0.0064,0.0294,0.0303,0.0443,0.0485,0.0439,0.0436,0.0414,0.0407,0.0466,0.0465,0.0463,0.0462,0,-0.1093,-0.1079,-0.1105,-0.1079,-0.1074,-0.1089,-0.1025,-0.1005,-0.0897,-0.0826,-0.079,-0.0578,-0.035,-0.0116,0.0164,0.0291,0.0505,0.0582,0.0507,0.0536,0.0589,0.0576,0.0737,0.0739,0.074,0.0742,0.0743,0,-0.1134,-0.1162,-0.1179,-0.1203,-0.1197,-0.1196,-0.1191,-0.109,-0.1059,-0.0871,-0.0847,-0.0603,-0.0422,-0.0007,0.0266,0.0568,0.0575,0.0695,0.0666,0.0597,0.0621,0.0606,0.0591,0.0681,0.0682,0.0682,0.0682,0,-0.1202,-0.1217,-0.1242,-0.1305,-0.1328,-0.1338,-0.132,-0.1313,-0.118,-0.1085,-0.0908,-0.0738,-0.0324,0.0014,0.0392,0.0558,0.064,0.0712,0.0694,0.0601,0.0553,0.0573,0.056,0.0687,0.0686,0.0686,0.0686,0.0685,-0.1245,-0.1293,-0.1335,-0.139,-0.1428,-0.1465,-0.1461,-0.1422,-0.1357,-0.1181,-0.0993,-0.0679,-0.0348,0.0209,0.0469,0.0719,0.0714,0.0777,0.0773,0.0769,0.0718,0.0675,0.0822,0.0822,0.0822,0.0823,0.0823,0,-0.1279,-0.1335,-0.1405,-0.1469,-0.1523,-0.1522,-0.1524,-0.1472,-0.14,-0.1203,-0.0985,-0.0553,-0.0171,0.0193,0.0588,0.0799,0.0779,0.0834,0.0769,0.0764,0.0759,0.0705,0.0808,0.0808,0.0809,0.0809,0,0,-0.1295,-0.1375,-0.1421,-0.1525,-0.1569,-0.1597,-0.1594,-0.1509,-0.1349,-0.1126,-0.0874,-0.0572,-0.0123,0.0146,0.0421,0.0636,0.0637,0.0649,0.0638,0.0523,0.0516,0.0706,0.0615,0,0,0,0,0]}],[{"header":{"parameterUnit":"m.s-1","parameterCategory":2,"la1":30.2991,"la2":30.254,"lo1":-89.0895,"lo2":-89.0444,"dy":0.0017,"dx":0.0017,"nx":28,"ny":28,"refTime":"2025-05-27T09:00:00:Z","depth":"4","parameterNumber":2,"parameterNumberName":"U-component_of_CURRENTS"},"data":[0,0,0,0,0,0,0,0,0,0,0,0,0,0,0,0,0,0,0,0,0,0,0,0,0,0,0,0,0,0,0,0,0,0,0,0,0,0,0,0,0,0,0,0,0,0,0,0,0,0,0,0,0,0,0,0,0,0,-0.2024,-0.2024,0,-0.2063,-0.2063,-0.2064,-0.2105,-0.2106,-0.2106,-0.2107,-0.2176,-0.2177,-0.2179,0,0,0,0,0,0,0,0,0,0,0,0,0,-0.1988,-0.1988,-0.2024,-0.2024,-0.2025,-0.2063,-0.2064,-0.2064,-0.2105,-0.2106,-0.2106,-0.2107,-0.2176,-0.2177,-0.2179,0,0,0,0,0,0,0,0,0,0,0,0,0,-0.2013,-0.1989,-0.2024,-0.205,-0.2053,-0.2063,-0.2064,-0.2064,-0.2105,-0.2106,-0.2107,-0.2107,-0.2175,-0.2177,-0.2179,-0.2174,0,0,-0.2185,-0.2186,0,0,0,0,0,0,0,0,-0.2012,-0.2014,-0.2046,-0.2048,-0.2051,-0.208,-0.2076,-0.2102,-0.2105,-0.2085,-0.2107,-0.2108,-0.2146,-0.215,-0.2155,-0.2177,-0.218,-0.2185,-0.2186,-0.2187,-0.2188,0,0,0,0,0,0,0,-0.201,-0.2013,-0.2039,-0.2046,-0.2049,-0.2061,-0.2065,-0.2081,-0.2111,-0.2087,-0.209,-0.2094,-0.2148,-0.2153,-0.2157,-0.2181,-0.2185,-0.2187,-0.2188,-0.2189,-0.2289,-0.2291,0,0,0,0,0,0,-0.2004,-0.2011,-0.2038,-0.2041,-0.2033,-0.2061,-0.2066,-0.207,-0.211,-0.2117,-0.2093,-0.2096,-0.215,-0.2155,-0.216,-0.2249,-0.2187,-0.2189,-0.219,-0.2288,-0.229,-0.2291,0,0,0,0,0,0,-0.2003,-0.2006,-0.2037,-0.2027,-0.2032,-0.206,-0.2065,-0.207,-0.2113,-0.2115,-0.2122,-0.2135,-0.2151,-0.2157,-0.2205,-0.2249,-0.219,-0.2191,-0.2286,-0.2288,-0.2291,-0.2368,0,0,0,0,0,0,-0.2002,-0.2005,-0.2025,-0.2026,-0.2032,-0.2068,-0.2064,-0.207,-0.2112,-0.2117,-0.2152,-0.2157,-0.2152,-0.2202,-0.2207,-0.225,-0.2193,-0.2284,-0.2287,-0.229,-0.2363,-0.2372,-0.238,0,0,0,0,0,-0.2,-0.2016,-0.2026,-0.203,-0.2052,-0.2069,-0.2075,-0.2097,-0.2113,-0.2138,-0.2162,-0.2158,-0.2223,-0.2205,-0.221,-0.2255,-0.2283,-0.2286,-0.229,-0.2359,-0.237,-0.238,0,0,0,0,0,0,-0.2013,-0.2022,-0.2032,-0.2052,-0.2073,-0.2077,-0.2103,-0.2119,-0.2157,-0.2172,-0.2176,-0.2183,-0.2239,-0.2235,-0.2215,-0.2291,-0.2253,-0.2257,-0.2304,-0.2314,-0.2323,-0.2323,-0.2195,0,0,0,0,0,-0.2023,-0.2041,-0.205,-0.2072,-0.2084,-0.2102,-0.212,-0.2137,-0.2159,-0.2179,-0.2203,-0.2227,-0.225,-0.2274,-0.2289,-0.2334,-0.2306,-0.2366,-0.2374,-0.2382,-0.2385,-0.2383,-0.2391,-0.2302,-0.2302,-0.2302,0,0,-0.2037,-0.2043,-0.2056,-0.2077,-0.2095,-0.2122,-0.2117,-0.2153,-0.219,-0.2179,-0.2248,-0.2259,-0.2267,-0.2315,-0.2341,-0.2324,-0.2389,-0.2386,-0.2392,-0.2391,-0.2387,-0.2395,-0.2403,-0.2305,-0.2304,-0.2304,0,0,-0.2056,-0.2078,-0.2095,-0.2117,-0.2148,-0.216,-0.218,-0.2209,-0.224,-0.2293,-0.2296,-0.2335,-0.2376,-0.2389,-0.2399,-0.2464,-0.243,-0.2476,-0.2527,-0.2526,-0.2533,-0.2539,-0.25,-0.2501,-0.2485,-0.2486,-0.2486,0,-0.2075,-0.2095,-0.2107,-0.213,-0.2158,-0.2183,-0.2217,-0.2249,-0.2295,-0.2323,-0.2329,-0.2395,-0.2408,-0.2459,-0.2484,-0.2485,-0.2463,-0.249,-0.2536,-0.2542,-0.2546,-0.2505,-0.2506,-0.249,-0.2489,-0.2489,-0.2488,0,-0.2092,-0.2131,-0.2146,-0.2185,-0.2218,-0.2253,-0.2291,-0.234,-0.2381,-0.2405,-0.2473,-0.2488,-0.2524,-0.2542,-0.2537,-0.2587,-0.2552,-0.2543,-0.2509,-0.256,-0.2513,-0.2512,-0.2496,-0.2494,-0.2493,-0.2492,0,0,-0.2072,-0.2145,-0.2155,-0.2191,-0.2253,-0.2277,-0.2349,-0.2407,-0.2454,-0.2507,-0.256,-0.2613,-0.262,-0.2632,-0.2636,-0.2646,-0.266,-0.2619,-0.2617,-0.2576,-0.2632,-0.2451,-0.2432,-0.2663,-0.2664,-0.2664,-0.258,0,-0.2085,-0.214,-0.2178,-0.2253,-0.2286,-0.2345,-0.2405,-0.2467,-0.2518,-0.2574,-0.2608,-0.2654,-0.2655,-0.2677,-0.2693,-0.2666,-0.2666,-0.2682,-0.2592,-0.2588,-0.2419,-0.2428,-0.2667,-0.2579,-0.2579,-0.2579,-0.2579,0,-0.2076,-0.212,-0.219,-0.2287,-0.2309,-0.2366,-0.2463,-0.2519,-0.2599,-0.2637,-0.2691,-0.2708,-0.2745,-0.2732,-0.2718,-0.2729,-0.2691,-0.2665,-0.2661,-0.2464,-0.2406,-0.2521,-0.2577,-0.2577,-0.2577,-0.2577,-0.2577,0,-0.2027,-0.2126,-0.2186,-0.2219,-0.2329,-0.2388,-0.2453,-0.2542,-0.258,-0.2675,-0.2692,-0.275,-0.2751,-0.2747,-0.2698,-0.2713,-0.2651,-0.2657,-0.2456,-0.2442,-0.2598,-0.2592,-0.2642,-0.2642,-0.2642,-0.2642,-0.2643,0,-0.1997,-0.2051,-0.2178,-0.2209,-0.2286,-0.2377,-0.2456,-0.2528,-0.2608,-0.2618,-0.2715,-0.2698,-0.2756,-0.2724,-0.2699,-0.2551,-0.2645,-0.245,-0.2408,-0.2629,-0.2629,-0.2596,-0.2591,-0.2639,-0.264,-0.264,-0.2641,0,-0.1916,-0.2004,-0.208,-0.2217,-0.2262,-0.2317,-0.2435,-0.2461,-0.2567,-0.2578,-0.26,-0.2652,-0.2593,-0.2613,-0.2574,-0.2499,-0.2418,-0.2347,-0.2555,-0.2528,-0.2211,-0.2212,-0.2108,-0.21,-0.2094,-0.2089,-0.2085,0,-0.1871,-0.1904,-0.2058,-0.2089,-0.2156,-0.225,-0.2284,-0.242,-0.2424,-0.25,-0.246,-0.2464,-0.247,-0.2254,-0.2319,-0.2246,-0.2228,-0.218,-0.2226,-0.2187,-0.2157,-0.2168,-0.2177,-0.2076,-0.2074,-0.2073,-0.2071,0,-0.1774,-0.1849,-0.1902,-0.1967,-0.2025,-0.2071,-0.2134,-0.2127,-0.2231,-0.2352,-0.2242,-0.2206,-0.2127,-0.2097,-0.2051,-0.2011,-0.2217,-0.2118,-0.2131,-0.2173,-0.2147,-0.2126,-0.2142,-0.205,-0.2053,-0.2055,-0.2056,0,-0.1688,-0.1698,-0.1766,-0.18,-0.1861,-0.1839,-0.1919,-0.1897,-0.1928,-0.2028,-0.1976,-0.1994,-0.2066,-0.1968,-0.1927,-0.1873,-0.1856,-0.1818,-0.1847,-0.187,-0.1838,-0.1772,-0.1507,0,0,0,0,0,-0.1583,-0.1558,-0.1579,-0.1594,-0.1641,-0.167,-0.1766,-0.1841,-0.1957,-0.1813,-0.1893,-0.1813,-0.174,-0.1763,-0.1655,-0.1833,-0.1876,-0.1704,-0.1851,-0.1935,-0.1959,-0.1946,0,0,0,0,0,0,-0.1502,-0.1517,-0.1512,-0.1394,-0.1359,-0.138,-0.1436,-0.153,-0.1471,-0.1607,-0.1568,-0.1684,-0.1637,-0.1741,-0.1601,-0.1612,-0.1666,-0.1746,-0.1741,-0.1921,-0.1943,-0.1962,-0.1957,0,0,0,0,0]},{"header":{"parameterUnit":"m.s-1","parameterCategory":2,"la1":30.2991,"la2":30.254,"lo1":-89.0895,"lo2":-89.0444,"dy":0.0017,"dx":0.0017,"nx":28,"ny":28,"refTime":"2025-05-27T09:00:00:Z","depth":"4","parameterNumber":3,"parameterNumberName":"V-component_of_CURRENTS"},"data":[0,0,0,0,0,0,0,0,0,0,0,0,0,0,0,0,0,0,0,0,0,0,0,0,0,0,0,0,0,0,0,0,0,0,0,0,0,0,0,0,0,0,0,0,0,0,0,0,0,0,0,0,0,0,0,0,0,0,-0.0313,-0.0313,0,-0.0256,-0.0255,-0.0255,-0.0218,-0.0217,-0.0217,-0.0217,-0.0125,-0.0122,-0.012,0,0,0,0,0,0,0,0,0,0,0,0,0,-0.0337,-0.0337,-0.0313,-0.0313,-0.0312,-0.0256,-0.0255,-0.0254,-0.0218,-0.0217,-0.0217,-0.0217,-0.0125,-0.0123,-0.012,0,0,0,0,0,0,0,0,0,0,0,0,0,-0.0308,-0.0337,-0.0313,-0.0287,-0.0284,-0.0256,-0.0255,-0.0254,-0.0218,-0.0217,-0.0217,-0.0217,-0.0126,-0.0123,-0.012,-0.0106,0,0,-0.0109,-0.0108,0,0,0,0,0,0,0,0,-0.031,-0.0307,-0.0291,-0.0289,-0.0285,-0.0244,-0.023,-0.0203,-0.0218,-0.0243,-0.0217,-0.0217,-0.0161,-0.0155,-0.0146,-0.0101,-0.0097,-0.0109,-0.0107,-0.0106,-0.0105,0,0,0,0,0,0,0,-0.0312,-0.0309,-0.0291,-0.0291,-0.0287,-0.0259,-0.0255,-0.0224,-0.0204,-0.0241,-0.0238,-0.0232,-0.0159,-0.0149,-0.0143,-0.0096,-0.0109,-0.0106,-0.0104,-0.0103,-0.002,-0.002,0,0,0,0,0,0,-0.0322,-0.0311,-0.0292,-0.0289,-0.0297,-0.0259,-0.0255,-0.0257,-0.0205,-0.0197,-0.0232,-0.023,-0.0155,-0.0147,-0.014,-0.0099,-0.0106,-0.0102,-0.0101,-0.002,-0.002,-0.002,0,0,0,0,0,0,-0.0323,-0.0322,-0.0295,-0.0298,-0.0293,-0.026,-0.0262,-0.0256,-0.0248,-0.0199,-0.019,-0.023,-0.0154,-0.0144,-0.0113,-0.0096,-0.0101,-0.0098,-0.002,-0.002,-0.002,-0.0031,0,0,0,0,0,0,-0.0324,-0.0322,-0.0332,-0.0299,-0.0293,-0.0283,-0.0263,-0.0255,-0.0244,-0.0241,-0.0194,-0.0185,-0.0153,-0.0118,-0.0109,-0.0092,-0.0095,-0.0021,-0.002,-0.002,-0.0031,-0.0032,-0.0032,0,0,0,0,0,-0.0326,-0.0339,-0.0333,-0.0331,-0.0306,-0.0283,-0.0277,-0.0252,-0.0245,-0.0243,-0.021,-0.0187,-0.011,-0.0115,-0.0105,-0.0086,-0.0021,-0.002,-0.002,-0.0031,-0.0032,-0.0032,0,0,0,0,0,0,-0.0357,-0.0335,-0.0328,-0.0336,-0.0313,-0.0277,-0.0276,-0.0258,-0.0231,-0.023,-0.0185,-0.0174,-0.0139,-0.0117,-0.0124,-0.0063,-0.0061,-0.0059,-0.0073,-0.0073,-0.0073,-0.0083,-0.0092,0,0,0,0,0,-0.0369,-0.0375,-0.0344,-0.0353,-0.0344,-0.0312,-0.0302,-0.0284,-0.0254,-0.0243,-0.0208,-0.017,-0.013,-0.0107,-0.0075,-0.0042,-0.0016,-0.0024,-0.0024,-0.0024,-0.0026,0.0036,0.0042,-0.0019,-0.0019,-0.0019,0,0,-0.0386,-0.0375,-0.0379,-0.036,-0.0343,-0.0328,-0.0306,-0.0294,-0.0276,-0.0236,-0.0208,-0.0174,-0.0124,-0.0085,-0.0067,-0.0062,0.0002,-0.0024,-0.0024,-0.0026,0.0037,0.0044,0.0049,-0.0018,-0.0018,-0.0018,0,0,-0.0415,-0.0411,-0.042,-0.0401,-0.0376,-0.0351,-0.035,-0.0315,-0.0295,-0.0266,-0.0226,-0.0182,-0.0135,-0.0083,-0.0053,-0.0037,-0.0006,-0.0032,-0.0031,0.003,0.0035,0.0041,0.0064,0.0072,-0.0026,-0.0026,-0.0026,0,-0.0436,-0.0442,-0.0419,-0.0413,-0.0402,-0.0364,-0.0361,-0.033,-0.0288,-0.0269,-0.0262,-0.0173,-0.0128,-0.006,-0.005,-0.0034,-0.0013,-0.0032,0.003,0.0036,0.0042,0.0065,0.0073,-0.0026,-0.0026,-0.0026,-0.0026,0,-0.0459,-0.0463,-0.0466,-0.0447,-0.0429,-0.0424,-0.0376,-0.0357,-0.0331,-0.0294,-0.0239,-0.0175,-0.0122,-0.0093,-0.0063,0.0004,-0.0001,0.0019,0.0032,0.0048,0.007,0.0079,-0.0027,-0.0027,-0.0027,-0.0026,0,0,-0.0514,-0.0489,-0.0494,-0.0494,-0.0449,-0.0442,-0.0407,-0.0365,-0.0351,-0.0291,-0.0262,-0.0169,-0.0138,-0.0103,-0.0052,0.0012,0.0075,0.003,0.0033,0.0052,0.018,0.0136,0.0141,0.0107,0.0108,0.011,0.0173,0,-0.0543,-0.0556,-0.0524,-0.053,-0.0531,-0.048,-0.0454,-0.0407,-0.0364,-0.0325,-0.0236,-0.0193,-0.0139,-0.0119,-0.0042,0.004,0.01,0.0054,0.0161,0.0164,0.0124,0.0152,0.0116,0.018,0.0182,0.0184,0.0185,0,-0.0575,-0.0582,-0.0601,-0.0581,-0.0576,-0.0571,-0.0536,-0.0504,-0.0422,-0.0387,-0.0313,-0.0252,-0.015,-0.0114,0.0047,0.001,0.0092,0.0161,0.0165,0.0135,0.0138,0.0166,0.0202,0.02,0.0199,0.0198,0.0197,0,-0.064,-0.0633,-0.066,-0.0653,-0.062,-0.0623,-0.0602,-0.0535,-0.0515,-0.0432,-0.0414,-0.0284,-0.0238,-0.01,0.0032,0.0045,0.0192,0.0229,0.0267,0.0264,0.0289,0.0283,0.0348,0.0348,0.0348,0.0347,0.0347,0,-0.0681,-0.0703,-0.0703,-0.0718,-0.0751,-0.0697,-0.0709,-0.0666,-0.0605,-0.0585,-0.0462,-0.0426,-0.0231,-0.0126,0.0012,0.0148,0.0178,0.0268,0.0286,0.0279,0.0271,0.0295,0.0288,0.035,0.0349,0.0349,0.0348,0,-0.0741,-0.0739,-0.0777,-0.0778,-0.0787,-0.0814,-0.0797,-0.0797,-0.0728,-0.07,-0.0679,-0.0534,-0.0389,-0.0211,-0.0002,0.0097,0.0247,0.0288,0.023,0.0244,0.0286,0.0277,0.0355,0.0354,0.0354,0.0353,0.0353,0,-0.0768,-0.0798,-0.0848,-0.0884,-0.0895,-0.0922,-0.0938,-0.0878,-0.0868,-0.0768,-0.0763,-0.0623,-0.051,-0.0257,-0.0065,0.0181,0.0223,0.0282,0.0333,0.0281,0.0291,0.0284,0.0277,0.0351,0.0351,0.0351,0.0351,0,-0.0819,-0.0851,-0.0885,-0.0971,-0.1019,-0.1052,-0.1065,-0.1062,-0.0981,-0.0933,-0.0817,-0.0656,-0.0501,-0.0274,-0.0102,0.0082,0.024,0.0276,0.0281,0.0329,0.0278,0.0287,0.0281,0.0348,0.0349,0.0349,0.0349,0,-0.086,-0.0909,-0.0968,-0.1036,-0.1108,-0.1148,-0.1144,-0.1106,-0.1074,-0.0942,-0.0918,-0.0707,-0.058,-0.0328,-0.0167,0.0002,0.0073,0.0136,0.0149,0.0154,0.0082,-0.0014,-0.0014,0,0,0,0,0,-0.0883,-0.094,-0.1017,-0.1088,-0.1162,-0.1194,-0.1209,-0.1183,-0.1117,-0.1045,-0.0963,-0.0804,-0.0522,-0.0402,-0.0235,-0.0182,0.0082,0.0016,0.0156,0.0335,0.0338,0.0285,0,0,0,0,0,0,-0.0898,-0.098,-0.1022,-0.1114,-0.1168,-0.1235,-0.1247,-0.1203,-0.1138,-0.1049,-0.0899,-0.0784,-0.0516,-0.062,-0.024,-0.0188,-0.008,0.0157,0.016,0.0333,0.0336,0.0338,0.0284,0,0,0,0,0]}]]